Location: Marse
(42.1502°N, 110.9866°W)
Time: 02:09:20
(UTC+00:00)

BEESAT - Pass Details

Date: 07 July 2022
Orbit: 700 x 706 km, 98.6° (Epoch: 16 August)

Event Time Altitude Azimuth Distance (km) Brightness Sun altitude
Rises 04:48:52 0° 2° (N) 3,106 ? -15.5°
Reaches altitude 10° 04:51:25 10° 350° (N) 2,184 ? -15.8°
Maximum altitude 04:55:22 26° 294° (WNW) 1,362 ? -16.2°
Drops below altitude 10° 04:59:18 10° 238° (WSW) 2,174 ? -16.6°
Sets 05:01:50 0° 226° (SW) 3,088 ? -16.9°
